Location: Flitcham
(52.8000°N, 0.5667°E)
Time: 08:38:15
(UTC+00:00)

Cosmos 990 Rocket - Pass Details

Date: 15 May 2026
Orbit: 742 x 763 km, 74.0° (Epoch: 5 June)

Event Time Altitude Azimuth Distance (km) Brightness Sun altitude
Rises 21:14:22 0° 335° (NNW) 3,207 9.1 -10.3°
Reaches altitude 10° 21:16:46 10° 339° (NNW) 2,282 7.8 -10.5°
Maximum altitude 21:21:53 59° 60° (ENE) 871 4.3 -11.0°
Enters shadow 21:26:04 15° 137° (SE) 1,939 5.4 -11.3°
